STARLINK-37011, 68217

Orbit data source: Space-Track

STARLINK-37011, 68217 is a payload satellite owned by SpaceX/Seattle (US) in SSO that was launched on Tue, 17 Mar 2026 UTC via an FALCON 9 launch vehicle from the Air Force Western Test Range (AFWTR). Payload-class satellites include a variety of spacecraft equipped with specific instruments for various scientific and technological missions. These include communications satellites like Starlink; space stations such as the ISS; scientific satellites like the Hubble; Earth observation satellites from companies like Planet Labs, Umbra, and HawkEye 360; GPS; miniature CubeSats for education and research; and military/defense satellites.

Loading next visibility...
Identifier
68217, 2026-053L
Orbit
SSO
Country
Flag of USUS
Related business
Manufacturer
SpaceX/Seattle
Mission
Operational spacecraft
Bus & Motor
STARLINK V2MO, Unknown motor
Mass
575 kg wet, ~530 kg dry
Launch date (UTC)
2026-03-17 (3 months ago)
Launch vehicle
FALCON 9
Launch site
Air Force Western Test Range (AFWTR)
Object type
Payload
Rocket body
Debris
Shape & HBR
Unknown shape, 17.7 m
Radar Cross Section
Large (>1 m²)

Expand to show TLE details & history
Last TLE update: 12 hours ago

TLE from 12 hours ago
0 STARLINK-37011
1 68217U 26053L   26171.36797971  .00018762  00000-0  58193-3 0  9999
2 68217  97.2874  46.4411 0001240  83.6564 276.4820 15.33450531 15951
Epoch: 2026-06-20T08:49Z
TLE epoch observation values (Epoch: 2026-06-20T08:49:53.446Z)
Latitude
-0.00005°
Longitude
5.3848°
Altitude
468.543 km
Speed
7.632 km/s
True Right ascension
03h 05m 45s
True Declination
0° 00' 00"
Sunlit
Object was in daylight at epoch
Visualization orbit readout
Latitude
Unknown
Longitude
Unknown
Altitude
Unknown
Speed
Unknown
Apparent Right ascension
Unknown
Apparent Declination
Unknown
Sunlit
N/A
Visualization observer readout
Local Sidereal Time
07:21:29
Azimuth
Unknown
Elevation
Unknown
Doppler factor
Unknown
Orbital elements
Apogee altitude
463.318 km
Perigee altitude
461.621 km
Semi-major axis
6,840.607 km
Eccentricity
0.00012
Inclination
97.2874°
RAAN
46.4411°
Arg. of periapsis
83.6564°
True anomaly
276.46788°
Mean anomaly
276.482°
Eccentric anomaly
276.47494°
Mean motion
3.8362 °/min
Orbital period
93.84 mins
BSTAR
0.00058193
Loading maneuver chart data...
Computing Atmospheric mass density...
Loading historical data...
Loading historical data...
Loading historical data...
Loading historical data...
Loading historical data...
Loading historical data...
Loading historical data...

Documentation

Showing up to 5 results
|